MINOTAUR 4 R/B, 45877

Orbit data source: Space-Track

MINOTAUR 4 R/B, 45877 is space debris in LEO originally from a launch on Wed, 15 Jul 2020 UTC launched from the Wallops Island (WLPIS). Debris objects in space refer to the collection of defunct objects orbiting the Earth. Examples of debris include non-operational satellites, rocket bodies, and fragments generated from explosions, collisions, or faulty payload assembly.

Loading next visibility...
Identifier
45877, 2020-046E
Orbit
LEO
Country
Flag of USUS
Related business
Manufacturer
NGIS FSG
Mission
Spacecraft
Bus & Motor
ORION 38, Unknown motor
Mass
~500 kg wet, ~500 kg dry
Launch date (UTC)
2020-07-15 (6 years ago)
Launch vehicle
Unknown
Launch site
Wallops Island (WLPIS)
Object type
Payload
Rocket body
Debris
Shape & HBR
Cyl + 1 Nozzle, 0.7 m
Radar Cross Section
1.381 m², Large (>1 m²)

Expand to show TLE details & history
Last TLE update: 16 hours ago

TLE from 16 hours ago
0 MINOTAUR 4 R/B
1 45877U 20046E   26132.98891008  .00000828  00000-0  73723-4 0  9994
2 45877  53.9801  24.7358 0005275 253.2292 106.8130 15.06805832243615
Epoch: 2026-05-12T23:44Z
TLE epoch observation values (Epoch: 2026-05-12T23:44:01.830Z)
Latitude
-0.00009°
Longitude
157.97273°
Altitude
548.004 km
Speed
7.589 km/s
True Right ascension
01h 38m 56s
True Declination
0° 00' 00"
Sunlit
Object was in daylight at epoch
Visualization orbit readout
Latitude
Unknown
Longitude
Unknown
Altitude
Unknown
Speed
Unknown
Apparent Right ascension
Unknown
Apparent Declination
Unknown
Sunlit
N/A
Visualization observer readout
Local Sidereal Time
00:16:26
Azimuth
Unknown
Elevation
Unknown
Doppler factor
Unknown
Orbital elements
Apogee altitude
549.744 km
Perigee altitude
542.439 km
Semi-major axis
6,924.228 km
Eccentricity
0.00053
Inclination
53.9801°
RAAN
24.7358°
Arg. of periapsis
253.2292°
True anomaly
106.87085°
Mean anomaly
106.813°
Eccentric anomaly
106.84193°
Mean motion
3.76692 °/min
Orbital period
95.57 mins
BSTAR
0.000073723
Loading maneuver chart data...
Computing Atmospheric mass density...

Documentation

Showing up to 5 results
|